RH
67 62 84 85 60 71 63 50 46 43 40 34 33 28 29 34 37 36 80 73 63 59 70 67 81 80 76 76 76 76 77 77 76 71 67 66 66 65 67 71 66 69 69 72 70 69 67 67 68
64 61 72 89 68 59 48 53 49 46 38 36 40 39 44 53 76 85 84 75 57 69 66 64 82 81 79 76 76 77 77 76 75 71 66 65 65 64 65 72 67 71 69 73 71 69 67 66 69
52 62 76 83 77 60 50 42 43 42 39 39 34 49 58 67 82 77 73 68 54 69 65 66 82 81 80 79 77 78 78 75 69 66 66 64 64 63 66 72 71 70 68 74 72 71 69 68 66
64 67 68 83 82 71 50 39 43 45 36 39 39 42 61 64 74 69 71 63 58 68 67 74 80 79 80 78 78 77 76 70 66 67 64 64 64 65 72 73 70 65 70 73 71 69 67 66 65
67 76 83 79 77 71 59 54 50 48 43 42 46 48 65 68 73 72 73 65 60 68 69 66 78 78 78 77 77 73 70 69 68 65 64 64 64 70 74 75 73 68 74 73 70 68 66 64 64
69 72 79 76 70 64 53 49 46 50 52 50 46 56 69 78 82 78 71 66 57 70 68 63 77 78 78 76 72 74 69 68 66 66 65 66 66 68 74 75 71 66 69 73 70 64 61 60 63
67 77 71 76 79 66 55 52 52 58 54 57 58 52 72 77 81 77 73 65 76 66 68 62 66 71 79 76 73 71 68 66 66 70 70 72 73 72 71 69 69 64 63 71 66 62 58 58 62
66 69 81 78 64 65 46 46 57 49 55 58 58 53 61 72 80 88 86 82 79 71 68 61 59 59 60 58 74 71 68 69 73 75 77 76 74 73 69 69 67 62 61 69 61 58 58 58 64
60 67 77 68 67 54 44 45 38 55 40 47 54 54 55 75 84 92 85 87 80 76 66 61 60 60 60 58 61 70 72 75 78 77 80 74 73 61 59 63 64 55 58 64 58 59 62 65 71
55 72 65 59 56 53 43 35 32 30 28 36 53 69 70 74 89 94 87 82 83 82 72 63 62 61 59 59 61 64 69 72 61 62 63 60 60 54 49 54 61 56 58 59 59 69 74 65 57
48 51 53 44 32 32 31 27 24 28 38 38 29 56 79 81 86 87 79 71 75 76 77 68 64 62 62 63 72 83 86 76 67 63 62 59 57 56 51 50 49 47 59 48 44 40 42 52 55
32 30 35 30 28 29 28 24 23 30 31 27 31 48 77 80 82 85 80 70 69 75 75 70 66 68 70 77 78 88 80 81 67 66 60 58 54 49 45 42 46 46 44 33 32 34 40 44 47
32 28 28 29 36 37 32 32 26 26 25 32 37 54 75 80 81 76 76 70 68 76 77 71 69 68 74 83 80 86 81 74 67 64 59 56 52 44 40 37 39 34 33 30 32 32 33 33 33
32 34 38 38 33 33 31 30 28 24 24 22 30 40 54 75 77 79 79 78 74 75 78 71 69 66 74 83 80 79 81 71 67 63 59 52 47 40 35 33 33 31 29 29 29 30 31 33 30
41 42 40 38 31 36 30 36 28 23 22 25 22 36 65 72 75 76 78 73 79 74 71 72 69 68 77 87 83 81 79 71 67 61 56 50 46 35 34 31 30 29 27 25 27 27 29 32 31
43 44 55 42 42 34 30 46 35 29 25 30 27 21 38 69 72 74 76 72 74 78 76 76 69 76 79 85 86 82 76 72 65 60 56 44 42 36 35 34 35 33 33 33 32 33 35 33 31
54 56 58 55 39 38 35 45 37 32 33 34 28 24 21 41 73 72 76 75 73 76 80 77 72 80 86 89 91 88 79 71 63 60 55 43 42 36 36 35 37 36 38 36 35 38 34 34 36
60 61 59 60 46 44 49 51 44 39 39 37 31 27 25 22 34 72 75 76 74 78 78 82 81 78 88 93 95 90 81 76 67 62 60 44 46 40 38 39 38 37 43 42 41 37 39 37 36
54 63 64 53 45 53 53 52 48 43 43 43 37 30 25 23 20 40 73 74 76 76 79 80 82 82 93 96 96 92 89 78 70 63 60 49 45 46 41 40 37 42 42 42 40 44 42 45 40
57 58 58 52 49 54 60 55 50 42 43 38 39 46 51 50 34 38 64 75 75 76 82 79 82 89 93 94 95 94 88 80 72 73 55 56 46 47 46 40 41 42 49 48 45 49 49 50 48
48 55 54 62 63 62 59 57 54 52 50 49 53 60 62 68 65 58 52 80 79 77 81 81 80 88 92 94 93 94 92 89 83 70 64 56 50 48 46 41 47 47 47 51 48 54 63 58 59
60 49 57 69 67 67 63 73 55 62 61 60 61 64 68 70 70 69 60 68 82 77 84 83 81 85 92 94 96 93 95 95 94 93 93 92 91 84 62 42 46 46 50 51 51 46 46 50 48
46 54 68 67 74 67 73 79 54 68 78 74 66 68 68 69 74 75 67 60 79 77 82 83 85 83 93 97 94 95 97 97 95 95 95 95 96 95 91 74 47 46 56 48 48 49 48 47 47
53 65 62 66 68 69 76 86 60 88 89 80 73 72 77 77 78 83 77 72 79 80 80 86 90 93 95 95 93 93 96 97 97 97 98 99 97 95 91 78 53 50 49 49 50 50 50 50 48
65 74 88 73 87 74 69 73 70 88 71 75 85 86 87 89 94 90 86 84 86 85 85 90 94 98 96 95 94 95 96 98 96 96 96 98 97 96 92 74 52 54 59 56 59 58 59 56 56
76 77 95 90 90 86 68 86 80 80 68 70 81 84 82 88 92 95 95 94 93 97 97 96 97 98 96 95 97 96 98 99 96 96 97 96 94 92 73 52 54 56 59 56 57 62 63 58 54
52 75 78 94 89 89 81 62 85 74 69 72 86 84 85 81 86 91 94 97 96 97 98 97 97 97 96 97 96 98 97 97 98 95 94 95 93 92 93 71 66 72 68 62 57 56 53 50 49
52 65 73 85 97 87 64 64 60 86 86 81 87 86 85 79 80 85 91 97 97 97 98 97 97 96 90 94 94 97 95 96 97 96 97 97 96 88 79 73 67 62 57 52 52 50 46 44 47
43 41 61 76 80 87 76 62 51 69 84 83 77 75 79 78 73 79 73 82 90 92 91 92 92 91 92 94 95 96 92 87 80 78 70 59 61 63 60 57 54 51 47 44 42 43 43 42 43
39 41 57 71 65 84 83 59 50 57 74 63 61 60 59 61 58 63 70 63 60 71 62 63 68 63 67 57 50 51 49 49 48 47 47 47 50 49 47 44 43 42 42 39 38 38 38 38 42
Wind_Speed
3 2 2 2 1 1 2 4 2 3 3 1 2 3 4 2 4 2 2 5 12 19 15 19 19 19 19 18 17 17 16 16 15 15 15 14 13 12 11 12 14 14 14 16 17 17 18 17 17
2 2 2 2 2 3 4 3 9 6 5 6 3 1 3 2 3 2 8 5 15 17 16 17 19 18 19 18 17 17 17 16 16 14 14 12 12 11 11 11 15 15 15 16 18 18 18 18 17
0 1 1 3 3 9 5 5 5 3 11 3 2 2 1 2 2 10 2 15 19 15 14 14 17 18 18 19 18 17 17 17 15 14 13 12 11 11 11 13 15 15 14 17 18 17 17 18 17
3 1 2 3 9 5 4 3 2 8 5 2 2 1 3 4 5 6 14 17 17 15 13 16 17 18 18 19 18 18 17 15 13 13 13 13 12 12 11 15 16 16 13 18 17 17 17 17 17
2 1 3 5 8 5 5 4 4 7 5 4 5 2 2 4 1 12 17 16 18 15 14 15 19 19 19 19 18 16 14 14 14 14 14 13 12 12 15 15 16 16 17 18 18 17 15 15 16
2 0 4 10 11 5 5 5 5 1 2 3 1 1 1 2 7 13 15 16 16 16 15 15 17 18 17 17 16 17 15 15 15 15 15 12 14 13 15 15 15 16 14 17 16 16 16 16 16
3 2 4 4 3 3 4 1 2 0 3 1 1 3 2 6 6 12 13 14 14 15 14 14 15 14 15 14 14 15 16 17 17 14 15 15 14 14 14 14 14 15 14 17 15 15 15 16 16
3 1 2 3 7 8 6 1 2 2 0 1 1 1 2 5 10 10 11 12 13 13 14 14 12 12 12 13 14 15 16 16 16 17 17 16 15 14 14 14 14 16 15 16 15 15 15 16 16
2 1 2 4 5 4 3 5 1 1 1 2 2 2 1 16 14 10 12 10 10 10 13 14 13 12 11 11 12 13 14 14 16 15 17 14 5 10 11 10 13 15 16 17 15 16 17 18 17
2 2 5 4 3 4 9 7 7 5 9 2 4 4 8 16 17 15 15 14 14 13 13 13 14 13 12 9 11 11 10 9 10 11 11 8 9 9 9 11 14 15 17 17 16 16 15 11 7
1 3 3 5 7 6 5 10 7 8 10 6 7 6 13 13 17 17 17 19 18 15 12 14 14 13 13 10 7 4 3 6 7 11 10 9 7 6 5 5 4 8 11 8 10 9 7 9 7
2 4 3 5 4 4 6 5 9 11 11 11 9 6 16 18 18 17 18 19 18 16 15 15 15 13 12 7 7 6 7 5 7 8 11 8 5 6 6 5 6 7 6 9 8 6 9 9 10
2 3 3 7 10 8 9 12 12 7 9 13 7 8 16 18 19 18 18 18 20 19 17 17 16 15 12 10 7 7 8 7 8 8 9 8 7 7 6 6 5 6 7 8 8 9 8 9 9
1 6 10 7 6 5 5 5 1 6 4 7 9 11 14 19 21 17 18 18 20 20 18 17 18 18 16 11 11 8 7 9 8 8 9 10 8 8 7 6 6 7 7 7 7 8 8 7 7
2 5 7 3 2 5 3 4 4 2 4 7 9 9 10 13 16 20 19 20 19 16 17 17 16 15 16 13 11 8 8 9 8 7 9 10 9 10 10 8 7 7 6 9 8 7 7 7 6
3 2 7 6 6 3 0 9 9 7 3 12 12 7 9 10 17 18 15 17 15 16 18 17 14 15 16 13 12 8 9 8 8 8 7 10 10 11 9 8 7 8 7 6 6 6 6 6 5
5 6 7 9 2 4 1 10 8 11 11 13 13 8 8 10 10 14 15 16 16 14 16 17 16 15 13 9 9 9 10 8 8 8 7 10 10 9 8 7 8 9 7 6 7 5 5 5 5
7 6 6 10 5 5 12 15 14 13 9 10 12 13 7 10 12 12 16 15 14 14 15 13 11 14 11 7 6 6 7 6 7 8 7 8 7 9 9 7 8 8 7 7 6 7 4 4 5
6 5 12 15 13 6 10 15 14 16 12 11 11 12 10 8 9 6 12 14 13 15 15 17 15 14 10 6 5 5 5 6 6 7 9 7 5 4 8 7 8 8 9 9 8 5 6 3 3
6 10 9 10 4 4 9 17 10 12 11 8 7 9 11 10 12 5 6 14 15 16 16 16 16 14 11 8 4 3 4 3 4 4 5 6 6 4 5 9 8 9 6 8 8 5 4 3 2
7 4 7 8 7 2 12 5 8 20 9 8 13 10 10 9 13 12 5 14 15 16 17 16 15 14 12 13 8 6 6 4 3 5 5 5 5 5 1 5 6 7 6 6 8 6 4 4 2
5 2 7 4 2 5 10 3 5 20 19 21 18 15 13 14 10 12 10 12 16 16 13 16 16 15 11 11 10 8 6 4 3 5 6 8 11 7 8 4 4 6 5 7 7 6 5 5 5
7 10 1 2 1 1 13 2 2 16 20 25 24 17 14 12 11 13 12 12 14 12 14 14 13 12 6 9 7 6 6 7 7 7 8 6 10 1 5 8 5 6 4 5 7 7 7 4 4
12 3 3 3 1 3 9 3 5 12 18 22 20 15 14 12 10 7 6 6 8 8 10 9 10 7 7 9 9 11 14 13 10 11 8 5 7 9 10 8 7 7 7 8 7 7 8 6 4
11 7 4 5 7 3 5 3 4 15 22 15 15 14 12 13 10 4 6 8 9 10 9 8 9 10 11 11 12 13 11 8 16 14 11 14 10 6 8 9 6 5 5 6 6 6 5 5 5
4 3 3 1 4 7 7 7 6 11 14 15 14 13 14 16 13 13 8 8 10 10 11 11 11 12 10 9 10 10 7 4 2 4 7 6 7 7 8 6 3 3 2 5 6 5 4 5 5
2 4 2 3 1 3 4 1 4 17 20 20 18 18 16 15 14 14 13 7 10 11 10 11 12 13 13 14 12 12 7 7 5 7 5 5 6 7 4 3 4 5 1 3 6 5 6 6 5
4 3 1 3 5 5 5 3 9 14 16 16 15 15 16 14 14 14 13 12 12 11 11 10 10 13 9 8 9 7 5 5 6 6 6 4 4 4 6 6 5 7 5 6 7 6 6 6 4
3 3 4 2 1 2 5 3 5 1 9 11 12 12 12 13 12 12 12 13 13 14 13 12 12 11 11 8 7 9 7 7 7 6 5 5 6 6 7 8 8 8 7 6 6 6 6 6 6
1 2 4 2 2 0 1 4 3 2 5 6 7 9 11 10 11 10 11 14 14 12 13 13 13 11 10 9 11 11 10 10 10 9 9 9 9 8 8 8 8 6 6 5 5 6 5 6 5
Wind_Direction
14 86 91 55 164 20 238 244 265 254 328 217 249 195 204 85 175 261 355 169 150 153 165 155 152 151 150 147 143 142 139 134 133 126 121 116 117 114 115 114 110 101 93 87 86 80 77 75 73
3 152 74 96 150 223 244 236 227 229 319 308 245 234 209 140 116 121 144 176 158 152 154 156 153 151 149 147 146 145 140 137 132 127 116 121 122 121 123 123 117 102 94 97 93 87 83 78 75
218 44 157 171 183 222 224 217 269 249 307 292 170 34 36 54 75 164 265 155 152 154 156 158 152 151 149 149 145 141 140 138 131 120 127 128 128 130 133 126 119 108 97 104 97 90 85 81 78
152 111 100 217 221 242 229 254 230 310 326 16 332 139 95 2 164 189 149 150 152 153 159 159 156 152 147 145 144 145 144 139 131 137 134 132 138 138 125 123 121 111 114 110 99 92 87 82 78
39 99 167 227 241 259 242 262 270 289 287 300 349 105 73 28 75 146 149 153 154 157 159 157 157 154 149 147 146 149 137 138 142 142 134 138 138 127 121 120 118 112 115 113 107 99 90 85 81
85 13 204 225 229 240 287 257 280 267 312 322 7 154 126 83 145 150 152 156 157 161 157 159 160 155 150 150 149 141 147 151 150 148 146 147 128 120 112 112 119 116 111 112 104 100 96 91 86
133 144 234 253 255 244 216 158 169 161 300 40 113 236 58 162 160 153 156 152 162 162 156 157 157 150 150 152 152 152 160 158 157 157 140 128 125 116 107 116 121 119 121 111 105 100 96 95 95
110 147 191 228 243 258 286 334 110 59 357 281 258 231 224 162 154 133 150 160 158 161 158 155 154 154 160 161 162 165 167 166 161 147 135 121 120 125 129 126 128 126 122 113 105 99 96 96 96
135 128 213 239 228 246 16 4 13 44 280 316 237 232 173 144 134 147 164 169 159 159 159 155 157 159 163 167 166 169 173 174 155 143 126 119 111 132 127 131 131 126 126 117 110 104 103 99 91
92 172 220 238 275 292 308 307 307 307 304 275 264 68 122 144 157 165 174 177 182 170 163 162 164 166 166 169 170 174 179 164 147 136 125 123 131 132 136 131 125 122 123 117 107 105 101 100 95
138 220 224 264 267 273 264 276 267 266 262 249 268 189 165 170 182 178 181 186 189 179 168 173 168 169 170 172 174 152 128 136 135 130 132 140 137 132 125 115 107 118 104 112 107 108 97 101 100
316 261 242 263 275 306 282 297 278 248 253 247 243 219 176 184 191 186 183 190 191 186 186 176 173 171 172 170 171 142 144 138 142 146 148 149 140 138 136 129 126 121 119 123 121 114 111 103 101
174 277 278 270 280 258 265 256 255 274 257 256 280 211 196 197 198 196 189 187 189 191 188 187 175 172 172 170 168 145 148 158 152 153 158 153 150 146 141 133 139 129 135 133 125 121 113 104 96
314 284 286 283 272 262 249 273 132 269 337 290 295 257 230 207 200 194 192 192 194 191 192 192 185 176 168 172 174 159 155 156 157 161 166 162 156 149 146 139 140 136 138 135 131 129 123 113 111
291 316 309 238 279 294 189 288 248 280 347 337 334 313 259 220 201 201 197 198 193 186 192 190 190 183 175 161 166 161 163 164 166 164 168 164 164 160 151 147 148 139 138 133 129 121 123 118 111
359 49 333 295 304 252 298 286 274 295 299 315 314 301 291 239 206 205 201 209 203 185 188 186 184 187 186 161 157 163 171 170 168 169 168 173 175 167 158 152 148 143 144 143 140 139 125 120 128
14 305 299 309 293 311 276 292 272 296 301 299 295 293 293 280 227 203 198 203 199 192 183 185 185 186 186 163 149 160 169 179 174 171 172 178 176 172 162 156 147 148 146 154 152 145 139 140 133
301 306 283 277 268 280 283 265 276 284 280 277 286 288 276 281 266 213 195 195 187 177 176 183 182 178 179 167 131 135 158 174 178 177 179 175 177 177 165 159 153 154 150 152 159 148 132 135 129
268 261 274 283 286 292 272 288 292 304 304 285 282 291 300 283 292 289 212 194 175 171 172 177 174 172 163 154 133 146 170 172 183 185 174 160 155 155 170 163 162 167 166 166 164 127 140 131 147
282 297 293 297 321 247 325 306 309 6 334 339 4 353 332 321 306 304 243 196 188 176 175 174 177 173 171 162 126 117 144 177 161 135 114 125 140 167 167 171 175 178 156 159 167 157 138 103 173
301 249 321 297 335 55 343 345 355 354 354 355 353 333 320 309 302 298 274 204 192 180 174 175 176 177 173 142 122 97 97 88 97 118 95 90 91 107 214 192 166 171 170 173 179 167 145 140 167
305 186 318 311 359 14 16 305 10 360 351 347 342 335 319 311 303 288 269 219 196 195 177 177 176 177 161 154 149 167 174 145 120 113 118 107 71 24 358 249 210 191 178 171 171 179 176 163 167
266 328 48 88 346 309 14 320 333 11 349 336 327 336 323 313 304 293 279 247 204 188 184 178 175 178 171 162 169 170 94 95 103 96 94 99 104 92 296 301 250 215 183 185 176 175 180 187 167
306 21 62 75 305 41 353 328 338 355 340 317 321 337 336 334 323 311 259 189 175 165 173 173 167 124 116 115 117 118 116 121 123 133 134 146 165 200 214 244 236 213 203 187 188 187 185 185 175
10 10 357 22 9 303 337 320 5 347 329 322 330 347 354 5 4 64 107 126 131 145 149 147 146 121 120 119 125 127 141 146 158 165 178 165 181 201 223 242 212 207 201 181 177 176 175 175 174
7 39 98 25 344 314 339 350 330 333 332 347 10 12 18 11 19 19 45 103 120 110 109 111 114 114 118 132 139 137 124 166 87 156 151 160 174 186 189 217 177 127 173 183 165 155 151 159 151
358 33 110 118 273 284 298 13 207 6 355 355 6 9 13 12 17 27 31 51 88 90 104 114 119 112 110 123 129 143 176 138 137 147 145 159 162 163 171 174 121 104 305 161 149 141 139 139 138
84 147 33 42 23 339 317 359 330 4 341 349 6 9 3 10 22 27 27 44 60 73 83 86 108 133 115 117 137 125 133 103 112 111 116 128 130 131 153 143 135 115 155 143 136 135 136 131 120
3 25 42 125 64 345 316 37 325 35 310 350 359 9 10 11 21 35 44 53 57 66 60 74 68 68 66 70 70 79 77 74 79 84 94 109 108 122 120 115 123 137 142 138 135 132 140 135 144
141 116 96 76 321 253 290 291 327 309 287 348 3 3 13 19 26 31 46 61 67 66 66 65 64 71 78 82 78 77 72 70 71 73 78 94 94 92 107 117 115 121 119 127 141 148 150 154 169